Location: Boissi�res
(45.2500°N, 2.3667°E)
Time: 06:22:44
(UTC+00:00)

Ariane Rocket - Pass Details

Date: 03 March 2021
Orbit: 759 x 771 km, 98.7° (Epoch: 19 April)

Event Time Altitude Azimuth Distance (km) Brightness Sun altitude
Exits shadow 18:42:04 15° 104° (ESE) 1,984 4.5 -11.6°
Maximum altitude 18:44:54 24° 62° (ENE) 1,570 4.1 -12.1°
Drops below altitude 10° 18:48:55 10° 11° (N) 2,323 5.4 -12.8°
Sets 18:51:36 0° 357° (N) 3,253 6.3 -13.3°
